Погода в Фекане

Франция     49°45′18″N   0°22′49″E
темп.,
°C
ветер,
м/с
пор.,
м/с
влажн.,
%
обл.,
%
осадки,
мм/ч
давл.,
гПа
погр.,
м
12 мая, ср
ср1223:00+8юз410945 0.2 1012270
02:00+6ююз410966 0.2 1012240
05:00+5ю489827 0.0 1012166
08:00+6ю489523 0.0 1012211
11:00+12ююз56725 0.0 1011945
14:00+14ю3559100 0.3 10101682
17:00+13ю357141 0.2 1009820
20:00+12ююв5981100 0.6 1007444
13 мая, чт
чт1323:00+10юв6128974 0.1 1007378
02:00+8юз51096100 1.6 1008569
05:00+7ююз5109599 1.2 1007445
08:00+7ю510936 1.2 1007397
11:00+11ююз677422 0.1 10071108
14:00+12юз567516 0.9 1006990
17:00+13юз4568100 1.1 10051181
20:00+10зюз3580100 1.6 1006391
14 мая, пт
пт1423:00+9ююз4894100 0.1 1006334
02:00+8ю5995100 0.3 1005348
05:00+8ю489790 0.1 1005324
08:00+8ю469594 0.1 1006326
11:00+10всв228599 0.2 1007649
14:00+12с447850 0.4 1008776
17:00+13ссз55766 0.1 1009798
20:00+11ссз348623 0.1 1010442
15 мая, сб
сб1523:00+7зюз339699 0.0 101156
02:00+7ююз3496100 0.0 101077
05:00+7ююз369898 0.0 1009172
08:00+8ю5119295 0.0 1008486
11:00+8ю71294100 0.5 1007702
14:00+12юз788281 0.6 1006847
17:00+14з711670 0.4 10061277
20:00+12з5107991 0.4 1006796
16 мая, вс
вс1623:00+9юз612875 0.1 1007446
02:00+9юз613905 0.1 1007515
05:00+8юз6139664 0.0 1007535
08:00+9юз81285100 0.0 1007847
11:00+12юз912756 0.1 10071158
14:00+14зюз913625 0.4 10061508
17:00+14зюз9146324 0.0 10051530
20:00+11зюз815721 0.1 10041260